Flag for Kenya Weather past 2 weeks in Nairobi, Kenya

Now
61 °F

Passing clouds.


Feels Like: 61 °F
Forecast: 58 / 65 °F
Wind: 3 mph from Northeast

Location: Kenyatta Airport

Current Time: Jul 3, 2015 at 2:29:41 AM

Latest Report: Jul 3, 2015 at 2:00 AM


Visibility: N/A

Pressure: 30.24 "Hg

Humidity: 88%

Dew point: 57 °F

Location of NairobiLocation

Historic Weather in Nairobi — Graph

°F

Nairobi temperature yesterday

Maximum temperature yesterday: 75 °F (at 3:00 PM)
Minimum temperature yesterday: 57 °F (at 3:00 AM)
Average temperature yesterday: 66 °F

Past Weeks' High & Low Weather Summary

 TemperatureHumidityPressure
High77 °F (Jun 23, 3:00 PM)100% (Jun 28, 7:30 AM)30.36 "Hg (Jun 28, 7:30 AM)
Low50 °F (Jun 27, 7:00 AM)39% (Jun 23, 5:00 PM)29.95 "Hg (Jun 28, 12:00 PM)
Average66 °F72%30.24 "Hg
* Reported Jun 18 1:00 AM — Jul 3 1:00 AM, Nairobi, Weather by CustomWeather, © 2015

Note: Actual official high and low records may vary slightly from our data, if they occured in-between our weather recording intervals... More about our weather records

Advertising

Nairobi weather history for previous 24 hours

 ConditionsComfort  
Time TempWeatherWind HumidityBarometerVisibility
1:00 AM
Fri, Jul 3
63 °FPartly cloudy.6 mph83%30.27 "HgN/A
12:00 AM63 °FPartly cloudy.10 mph77%30.27 "HgN/A
11:00 PM
Thu, Jul 2
64 °FPartly cloudy.13 mph73%30.27 "HgN/A
10:00 PM64 °FPartly cloudy.12 mph68%30.27 "HgN/A
9:00 PM66 °FPassing clouds.13 mph64%30.24 "HgN/A
8:30 PM66 °FPassing clouds.13 mph64%30.24 "HgN/A
8:00 PM68 °FPassing clouds.12 mph60%30.21 "HgN/A
7:00 PM70 °FPassing clouds.16 mph57%30.21 "HgN/A
6:00 PM72 °FPartly sunny.14 mph53%30.18 "HgN/A
5:30 PM72 °FPartly sunny.7 mph53%30.18 "HgN/A
5:00 PM73 °FPartly sunny.10 mph50%30.18 "HgN/A
4:00 PM73 °FScattered clouds.5 mph50%30.18 "HgN/A
3:00 PM75 °FPartly sunny.12 mph50%30.21 "HgN/A
2:30 PM73 °FPartly sunny.9 mph57%30.21 "HgN/A
2:00 PM73 °FPartly sunny.13 mph57%30.24 "HgN/A
1:30 PM73 °FPartly sunny.7 mph57%30.24 "HgN/A
1:00 PM73 °FPartly sunny.7 mph57%30.24 "HgN/A
12:30 PM73 °FPartly sunny.6 mph57%30.27 "HgN/A
12:00 PM72 °FPartly sunny.6 mph65%30.27 "HgN/A
11:00 AM68 °FPartly sunny.5 mph69%30.30 "HgN/A
10:30 AM66 °FBroken clouds.5 mph73%30.30 "HgN/A
10:00 AM64 °FBroken clouds.5 mph83%30.30 "HgN/A
9:00 AM61 °FPartly sunny.6 mph88%30.30 "HgN/A
8:30 AM61 °FBroken clouds.8 mph94%30.30 "HgN/A
8:00 AM61 °FBroken clouds.5 mph94%30.30 "HgN/A
7:00 AM59 °FBroken clouds.3 mph100%30.27 "HgN/A
6:00 AM59 °FPassing clouds.No wind94%30.24 "HgN/A
5:30 AM61 °FPartly cloudy.3 mph94%30.24 "HgN/A
5:00 AM61 °FPassing clouds.3 mph94%30.24 "HgN/A
4:00 AM59 °FPassing clouds.No wind94%30.21 "HgN/A
3:00 AM57 °FPassing clouds.No wind100%30.21 "HgN/A
2:00 AM59 °FPassing clouds.5 mph94%30.24 "HgN/A
Weather by CustomWeather, © 2015

See weather overviewHow to use our weather pages